Location: Rounton
(54.4000°N, 1.3500°W)
Time: 14:49:00
(UTC+00:00)

Transit 2A Rocket - Pass Details

Date: 01 December 2021
Orbit: 584 x 918 km, 66.7° (Epoch: 21 January)

Event Time Altitude Azimuth Distance (km) Brightness Sun altitude
Rises 10:11:50 0° 243° (WSW) 3,398 8.4 10.6°
Reaches altitude 10° 10:14:18 10° 249° (WSW) 2,506 7.7 10.8°
Maximum altitude 10:20:01 50° 324° (NW) 1,135 5.7 11.1°
Drops below altitude 10° 10:25:59 10° 40° (NE) 2,621 7.5 11.4°
Sets 10:28:39 0° 45° (NE) 3,567 8.2 11.5°
